SCP
0 0 0 0 0 0 0 0 0 0 0 0 0 0 0 0 0 0 0 0 0 0 0 0 0 0 0 0 0 0 0 0 0 0 0 0 0 0 0 0 0 0 0 0
0 0 0 0 0 0 0 0 0 0 0 0 0 0 0 0 0 0 0 0 0 0 0 0 0 0 0 0 0 0 0 0 0 0 0 0 0 0 0 0 0 0 0 0
0 0 0 0 0 0 0 0 0 0 0 0 0 0 0 0 0 0 0 0 0 0 0 0 0 0 0 0 0 0 0 0 0 0 0 0 0 0 0 0 0 0 0 0
0 0 0 0 0 0 0 0 0 0 0 0 0 0 0 0 0 0 0 0 0 0 0 0 0 0 0 0 0 0 0 0 0 0 0 0 0 0 0 0 0 0 0 0
0 0 0 0 0 0 0 0 0 0 0 0 0 0 0 0 0 0 0 0 0 0 0 0 0 0 0 0 0 0 0 0 0 0 0 0 0 0 0 0 0 0 0 0
0 0 0 0 0 0 0 0 0 0 0 0 0 0 0 0 0 0 0 0 0 0 0 0 0 0 0 0 0 0 0 0 0 0 0 0 0 0 0 0 0 0 0 0
0 0 0 0 0 0 0 0 0 0 0 0 0 0 0 0 0 0 0 0 0 0 0 0 0 0 0 0 0 0 0 0 0 0 0 0 0 0 0 0 0 0 0 0
0 0 0 0 0 0 0 0 0 0 0 0 0 0 0 0 0 0 0 0 0 0 0 0 0 0 0 0 0 0 0 0 0 0 0 0 0 0 0 0 0 0 0 0
0 0 0 0 0 0 0 0 0 0 0 0 0 0 0 0 0 0 0 0 0 0 0 0 0 0 0 0 0 0 0 0 0 0 0 0 0 0 0 0 0 0 0 0
0 0 0 0 0 0 0 0 0 0 0 0 0 0 0 0 0 0 0 0 0 0 0 0 0 0 0 0 0 0 0 0 0 0 0 0 0 0 0 0 0 0 0 0
0 0 0 0 0 0 0 0 0 0 0 0 0 0 0 0 0 0 0 0 0 0 0 0 0 0 0 0 0 0 0 0 0 0 0 0 0 0 0 0 0 0 0 0
0 0 0 0 0 0 0 0 0 0 0 0 0 0 0 0 0 0 0 0 0 0 0 0 0 0 0 0 0 0 0 0 0 0 0 0 0 0 0 0 0 0 0 0
0 0 0 0 0 0 0 0 0 0 0 0 0 0 0 0 0 0 0 0 0 0 0 0 0 0 0 0 0 0 0 0 0 0 0 0 0 0 0 0 0 0 0 0
0 0 0 0 0 0 0 0 0 0 0 0 0 0 0 0 0 0 0 0 0 0 0 0 0 0 0 0 0 0 0 0 0 0 0 0 0 0 0 0 0 0 0 0
0 0 0 0 0 0 0 0 0 0 0 0 0 0 0 0 0 0 0 0 0 0 0 0 0 0 0 0 0 0 0 0 0 0 0 0 0 0 0 0 0 0 0 0
0 0 0 0 0 0 0 0 0 0 0 0 0 0 0 0 0 0 0 0 0 0 0 0 0 0 0 0 0 0 0 0 0 0 0 0 0 0 0 0 0 0 0 0
0 0 0 0 0 0 0 0 0 0 0 0 0 0 0 0 0 0 0 0 1 0 0 0 0 0 0 0 0 0 0 0 0 0 0 0 0 0 0 0 0 0 0 0
0 0 0 0 0 0 0 0 0 0 0 0 0 0 0 0 0 0 0 1 1 1 1 1 1 1 1 1 1 1 1 1 1 1 0 0 0 0 0 0 0 0 0 0
0 0 0 0 0 0 0 0 0 0 0 0 0 0 0 0 0 0 1 1 1 1 1 1 1 1 1 1 1 1 1 1 1 1 0 0 0 0 0 0 0 0 0 0
0 0 0 0 0 0 0 0 0 0 0 0 0 0 0 0 1 0 1 1 1 1 1 1 1 1 1 1 1 1 1 1 1 1 1 0 0 0 0 0 0 0 0 0
0 0 0 0 0 0 0 0 0 0 0 0 0 0 0 0 0 1 1 1 1 1 1 1 1 1 1 1 1 1 1 1 1 1 1 0 0 0 0 0 0 0 0 0
0 0 0 0 0 0 0 0 0 0 0 0 0 0 1 1 1 1 1 1 1 1 1 1 1 1 1 1 1 1 1 1 1 1 1 0 0 0 0 0 0 0 0 0
0 0 0 0 0 0 0 0 0 0 0 0 0 1 1 1 1 1 1 1 1 1 1 1 1 1 1 1 1 1 1 1 1 1 1 0 0 0 0 0 0 0 0 0
0 0 0 0 0 0 0 0 0 0 0 0 1 1 1 1 1 1 1 1 1 1 1 1 1 1 1 1 1 1 1 1 1 1 1 0 0 0 0 0 0 0 0 0
0 0 0 0 0 0 0 0 0 0 0 1 1 1 1 1 1 1 1 1 1 1 1 1 1 1 1 1 1 1 1 1 1 1 1 1 0 0 0 0 0 0 0 0
0 0 0 0 0 0 0 0 0 1 1 1 1 1 1 1 1 1 1 1 1 1 1 1 1 1 1 1 1 1 1 1 1 1 1 1 0 0 0 0 0 0 0 0
Wind_Speed
4 5 2 5 5 5 6 4 3 2 1 4 3 3 5 7 7 8 7 7 8 8 6 5 5 6 5 5 5 5 5 4 3 2 1 1 0 0 1 1 1 1 1 1
5 1 4 3 3 4 5 4 2 1 2 3 2 1 3 7 9 9 9 9 8 6 5 5 6 6 6 6 6 5 5 4 4 2 2 1 1 0 0 1 2 2 1 1
4 4 2 4 4 4 2 5 5 4 3 4 3 3 2 4 4 5 6 7 7 9 9 8 8 7 7 7 7 6 5 5 4 3 2 2 2 2 2 2 1 2 1 1
3 2 2 3 3 5 3 4 5 6 5 1 2 2 6 4 5 7 8 8 9 9 9 8 8 8 9 8 6 6 5 4 4 4 3 3 2 1 1 0 1 2 2 2
3 2 3 3 4 5 3 3 5 5 5 3 2 1 8 1 6 10 11 10 10 9 10 10 10 10 9 8 6 6 5 4 4 4 5 4 3 2 1 0 1 1 2 2
3 2 3 4 2 5 7 8 8 7 6 1 2 3 7 5 8 7 8 10 10 9 9 9 8 7 6 6 6 6 6 5 4 5 5 5 4 3 2 1 0 1 1 2
2 2 2 2 4 3 6 8 5 4 3 5 2 3 10 8 7 8 8 9 10 9 9 8 8 8 8 8 7 7 7 6 5 5 5 5 4 4 3 2 1 0 1 1
3 4 4 3 6 7 5 10 9 6 5 4 1 6 9 5 4 4 5 6 7 8 8 9 9 9 9 9 8 8 8 6 6 5 5 4 4 3 2 2 1 1 1 1
6 5 4 2 2 10 7 4 7 8 3 0 5 7 10 2 1 1 3 5 7 8 9 9 9 8 8 8 8 9 8 7 6 6 5 4 3 3 2 2 1 1 0 0
8 3 3 2 5 5 5 9 7 7 6 2 4 5 6 4 3 2 3 5 6 7 7 8 8 8 7 7 7 7 7 7 6 6 5 4 3 3 3 2 2 1 1 1
5 4 3 2 3 5 5 5 6 6 6 7 3 8 7 7 5 5 5 5 6 7 8 7 7 7 7 7 7 7 7 6 6 5 5 4 4 3 3 3 2 1 1 2
4 6 2 4 3 2 4 7 8 7 4 4 5 9 5 5 4 4 4 3 4 5 6 7 7 7 7 8 7 7 7 7 6 6 5 5 4 4 4 3 2 2 2 2
6 7 3 5 5 2 3 3 4 7 6 5 5 9 3 0 1 3 3 3 4 5 6 6 6 7 7 8 7 7 7 7 6 6 6 6 5 4 4 3 3 3 3 3
7 6 7 9 8 5 3 3 4 7 5 5 7 8 6 3 4 3 3 4 5 6 7 7 7 6 7 7 7 7 7 7 7 7 7 6 5 5 4 4 3 3 3 3
6 4 3 4 3 4 4 5 7 6 8 9 9 9 10 8 7 6 5 5 6 6 7 8 7 7 7 7 7 7 7 7 7 8 7 6 5 5 5 4 3 3 3 3
4 5 3 0 1 3 2 4 6 5 5 5 4 8 7 3 2 3 5 7 7 7 8 8 8 8 8 8 8 7 7 7 8 8 7 6 5 5 5 4 4 4 4 3
2 5 5 2 2 2 4 5 6 4 5 7 7 9 3 3 6 8 8 8 8 8 7 8 8 8 8 8 8 8 8 7 8 7 7 6 6 6 5 5 5 4 3 3
6 5 4 3 2 5 9 3 3 4 3 4 5 4 5 6 4 4 5 8 8 7 7 7 7 6 5 6 7 7 8 8 8 7 7 6 6 6 5 5 5 4 3 3
5 8 5 4 3 4 5 2 3 4 4 3 4 3 1 2 3 1 2 4 6 6 6 6 6 6 6 7 8 9 8 8 8 7 7 7 7 6 6 5 5 4 4 3
4 5 6 5 5 7 7 2 1 4 3 3 3 4 3 5 3 5 3 3 4 5 5 5 6 7 7 7 8 9 8 8 8 7 7 6 6 7 6 5 4 3 4 3
3 4 4 4 4 6 5 5 1 4 7 3 4 4 5 5 5 3 2 3 4 5 6 7 8 7 6 8 9 8 7 7 6 6 6 6 6 6 6 5 4 5 4 4
4 4 4 4 4 7 3 2 3 5 3 1 3 3 3 2 1 2 3 4 5 5 5 7 7 6 6 7 9 8 7 6 7 7 7 6 6 5 5 6 5 5 5 5
3 5 5 6 6 4 2 2 3 2 2 2 2 1 3 2 2 3 3 4 4 5 5 5 7 6 5 6 8 8 6 7 8 8 7 6 5 4 5 6 6 5 4 4
2 1 2 0 3 3 3 3 3 2 2 1 0 1 2 3 4 3 3 4 4 4 4 4 7 6 5 5 5 6 6 7 8 8 6 6 6 5 4 4 4 4 4 4
2 1 1 1 3 3 4 5 4 3 2 3 3 2 1 2 3 3 3 3 4 4 4 4 5 5 5 5 5 6 7 8 7 7 6 6 5 5 4 3 3 4 4 5
3 4 4 5 5 3 3 4 4 3 2 2 3 3 3 2 2 3 2 2 3 4 4 4 5 5 5 5 5 5 6 7 8 6 6 5 5 4 4 4 2 2 1 4
Wind_Direction
44 76 156 199 185 166 155 160 179 220 179 129 167 191 187 180 185 193 199 200 200 207 205 184 181 177 169 171 176 180 174 170 146 135 138 138 125 22 8 344 2 29 42 56
50 238 217 168 144 129 136 141 153 48 78 120 139 228 212 194 202 200 199 202 200 203 199 188 184 183 182 183 187 186 180 174 172 162 154 150 132 130 328 349 13 17 17 357
169 225 174 135 133 125 155 173 176 159 86 55 80 337 243 226 218 215 211 206 198 200 200 195 190 195 191 191 194 192 187 182 179 162 121 95 74 48 29 7 358 348 350 350
207 241 147 133 162 144 214 209 159 141 112 34 105 267 274 225 228 225 219 208 204 205 200 196 194 193 199 201 193 186 182 180 174 162 154 156 153 167 202 210 314 344 4 359
220 186 144 175 195 161 173 95 99 99 105 67 36 161 284 223 236 237 224 215 209 204 198 197 197 196 199 190 182 179 172 175 173 167 163 157 157 163 141 102 7 354 356 357
229 232 196 195 149 134 118 73 57 49 65 30 239 174 273 229 220 234 223 213 206 202 198 195 193 183 186 178 172 168 166 175 171 165 161 163 165 159 141 123 36 354 352 355
313 300 254 146 100 76 100 93 51 19 18 252 262 207 251 246 230 222 218 207 201 193 189 184 181 181 182 178 175 166 165 171 167 162 165 171 171 165 172 177 166 105 355 347
163 267 244 188 165 162 160 136 151 175 203 262 286 236 256 265 261 223 206 194 186 181 182 184 187 186 184 180 172 166 167 171 167 166 170 166 164 162 167 169 157 159 201 269
165 239 278 232 171 135 133 145 147 123 132 133 276 284 299 299 319 153 165 167 181 182 181 183 181 180 177 174 173 171 168 167 168 171 162 157 159 158 160 153 143 140 169 130
149 202 285 304 83 38 135 139 106 117 139 207 285 273 254 264 246 210 176 182 187 181 179 176 173 176 174 169 165 159 162 167 165 166 168 162 158 159 156 138 136 132 110 75
129 144 310 27 158 163 108 96 103 109 142 150 217 265 228 222 214 205 207 197 187 179 178 175 170 168 161 154 155 157 158 155 155 158 152 147 145 145 138 133 129 114 85 70
138 123 203 263 273 196 152 155 143 143 182 164 168 262 269 218 212 200 209 196 178 173 169 165 160 154 154 158 158 159 159 159 159 152 143 144 138 130 125 119 107 97 84 70
137 118 94 347 344 19 99 126 128 118 116 149 166 259 303 218 200 204 198 181 161 159 153 149 148 157 160 160 158 157 157 156 149 143 140 138 138 133 128 119 106 98 91 74
115 117 158 188 209 187 171 163 150 126 141 183 213 243 278 256 225 220 199 177 163 158 156 158 161 162 159 155 154 152 150 147 146 143 143 146 149 144 137 124 111 104 99 87
108 141 181 210 215 182 185 187 180 179 180 180 219 224 243 230 216 208 187 168 157 159 164 168 168 163 155 150 151 148 146 147 146 144 148 152 147 138 130 124 115 104 95 91
84 137 137 208 243 200 204 205 187 194 188 205 222 249 252 232 172 180 179 174 177 178 178 175 167 162 161 160 158 153 152 152 146 147 149 144 141 137 135 131 121 108 96 90
101 122 120 205 280 91 239 213 184 191 193 173 202 236 230 198 198 198 192 186 190 187 179 174 173 172 168 166 161 160 154 146 145 147 145 144 144 142 144 139 126 121 114 102
137 116 122 136 117 205 237 237 192 182 218 209 226 239 212 215 214 208 193 188 188 182 176 174 168 164 156 149 145 142 141 146 147 146 147 148 147 147 144 136 134 130 120 114
151 135 122 127 165 255 283 233 168 169 251 235 219 230 222 121 70 323 221 186 187 178 167 166 158 147 142 147 146 141 143 147 148 152 155 155 152 150 148 145 143 136 128 118
74 104 119 132 153 216 238 270 251 130 262 258 189 193 180 125 150 244 220 172 164 146 138 141 135 130 136 141 139 142 149 152 159 161 157 152 150 149 152 151 142 129 128 128
65 66 120 149 184 249 259 292 85 156 235 253 177 178 175 186 209 227 164 146 146 143 141 138 135 138 145 142 141 146 154 166 163 148 143 144 147 149 149 141 134 131 129 123
156 143 165 146 171 241 306 17 154 216 264 231 182 173 174 199 168 120 125 131 131 132 130 133 132 134 136 143 146 150 167 166 146 142 143 146 148 149 144 140 135 135 135 128
180 183 180 183 206 248 298 259 266 238 248 241 198 185 154 155 152 133 122 121 126 128 132 134 135 133 138 150 154 159 165 150 143 141 145 147 145 142 145 147 146 143 144 144
289 133 133 222 281 290 307 313 322 297 256 282 192 151 158 158 152 140 130 125 122 125 131 133 137 143 152 157 156 155 150 148 144 147 149 149 147 145 143 145 154 160 164 164
242 145 130 240 277 319 337 339 337 350 24 50 43 36 58 132 145 147 139 133 136 136 139 144 153 159 166 157 154 151 151 148 149 151 151 151 152 151 150 149 159 172 185 185
218 186 174 217 224 198 263 304 331 6 25 56 60 31 28 106 134 127 130 141 140 143 140 145 156 157 158 155 152 154 155 153 153 155 158 160 158 156 157 153 123 65 152 179